Simultaneous Nadir Overpasses (SNOs) Predictions

Prediction of SNOs between METOP-B and TERRA Satellite Orbit:

Table of predicted SNOs for the next 14.0 days since TLE Epoch: 4/19/2014
Index Date (METOP-B) Time (METOP-B) Lat,Lon (METOP-B) SZA (METOP-B ) Date (TERRA) Time (TERRA) Lat,Lon (TERRA) SZA (TERRA ) Distance(km) Time Diff (sec)
1 04/19/2014 11:25:07 81.32, 56.38 73.00 04/19/2014 11:25:12 81.33, 56.53 73.02 2.71 5
2 04/19/2014 12:15:48 -81.32,-136.12 107.00 04/19/2014 12:14:39 -81.32,-135.99 107.01 2.25 69
3 04/22/2014 06:08:47 -81.32, -44.65 107.94 04/22/2014 06:09:58 -81.32, -44.84 107.93 3.23 71
4 04/22/2014 06:59:26 81.32, 123.09 72.10 04/22/2014 06:59:24 81.33, 122.92 72.08 2.76 2
5 04/25/2014 01:43:07 -81.32, 21.61 108.88 04/25/2014 01:44:09 -81.32, 21.69 108.83 1.78 62
6 04/
